This is the latest recevied weather packets stored in our database for station/object N4MGC. If no packets are shown the sender has not sent any weather packets the latest 1 day(s).
| Time | Temp. | Humidity | Pressure | Rain* | Wind** | Luminosity | Snow |
|---|---|---|---|---|---|---|---|
| 1778071378 | 20.56° C | 93% | 1013.2 hPa | 0 mm | - | 14 W/m² | - |
| 1778069866 | 20.56° C | 94% | 1012.7 hPa | 0 mm | - | 24 W/m² | - |
| 1778068655 | 20.56° C | 93% | 1012.6 hPa | 0 mm | - | 7 W/m² | - |
| 1778068353 | 20.56° C | 92% | 1012.4 hPa | 0 mm | - | 3 W/m² | - |
| 1778067748 | 20.56° C | 92% | 1012.1 hPa | 0 mm | - | 5 W/m² | - |
| 1778065933 | 20.56° C | 91% | 1012 hPa | 0 mm | - | 0 W/m² | - |
| 1778065327 | 20.56° C | 90% | 1011.9 hPa | 0 mm | - | 0 W/m² | - |
| 1778061997 | 20.56° C | 88% | 1011.5 hPa | 0 mm | - | 0 W/m² | - |
| 1778061393 | 20.56° C | 88% | 1011.2 hPa | 0 mm | - | 0 W/m² | - |
| 1778060183 | 20.56° C | 88% | 1011.1 hPa | 0 mm | - | 0 W/m² | - |
| 1778059274 | 20.56° C | 87% | 1011.1 hPa | 0 mm | - | 0 W/m² | - |
| 1778058972 | 20.56° C | 86% | 1011.3 hPa | 0 mm | - | 0 W/m² | - |
| 1778057760 | 20.56° C | 85% | 1011 hPa | 0 mm | - | 0 W/m² | - |
| 1778056850 | 20.56° C | 85% | 1010.9 hPa | 0 mm | - | 0 W/m² | - |
| 1778056547 | 20.56° C | 85% | 1010.7 hPa | 0 mm | - | 0 W/m² | - |
| 1778056244 | 21.11° C | 84% | 1010.3 hPa | 0 mm | - | 0 W/m² | - |
| 1778055941 | 21.11° C | 84% | 1010.7 hPa | 0 mm | - | 0 W/m² | - |
| 1778055637 | 21.11° C | 83% | 1010.8 hPa | 0 mm | - | 0 W/m² | - |
| 1778055032 | 21.11° C | 83% | 1011 hPa | 0 mm | - | 0 W/m² | - |
| 1778054730 | 21.11° C | 83% | 1010.8 hPa | 0 mm | - | 0 W/m² | - |
| 1778053821 | 21.11° C | 82% | 1010.5 hPa | 0 mm | - | 0 W/m² | - |
| 1778052005 | 21.11° C | 79% | 1010.6 hPa | 0 mm | - | 0 W/m² | - |
| 1778051703 | 21.11° C | 79% | 1010.5 hPa | 0 mm | - | 0 W/m² | - |
| 1778051097 | 21.67° C | 78% | 1010.3 hPa | 0 mm | - | 0 W/m² | - |
| 1778050188 | 21.67° C | 78% | 1010.5 hPa | 0 mm | - | 0 W/m² | - |
* Rain latest hour (hover to see other rain measurements)
** Current wind speed in m/s (hover to see current wind gust speed)